Location: Bothwell
(42.3833°S, 147.0000°E)
Time: 22:45:24
(UTC+11:00)

RS-44 - Pass Details

Date: 01 October 2022
Orbit: 1175 x 1510 km, 82.5° (Epoch: 29 November)

Event Time Altitude Azimuth Distance (km) Brightness Sun altitude
Exits shadow 23:38:07 42° 235° (SW) 2,048 ? -44.0°
Drops below altitude 10° 23:45:29 10° 182° (S) 3,702 ? -44.1°
Sets 23:48:40 0° 175° (S) 4,684 ? -44.2°
